Regional Weather Roundup
Issued by NWS

Home | Current Version | Previous Version | Text Only | Print | Product List | Glossary Off
Versions: 1 2 3 4 5 6 7 8 9 10 11 12 13 14 15 16 17 18 19 20 21 22 23 24 25 26 27 28 29 30 31 32 33 34 35 36 37 38 39 40 41 42 43 44 45 46 47 48 49 50

000
ASUS43 KMPX 260410
RWRMN
WEATHER ROUNDUP FOR MINNESOTA
NATIONAL WEATHER SERVICE TWIN CITIES/CHANHASSEN MN
1000 PM CST THU DEC 25 2014


NOTE: "FAIR" INDICATES FEW OR NO CLOUDS BELOW 12,000 FEET WITH NO
SIGNIFICANT WEATHER AND/OR OBSTRUCTIONS TO VISIBILITY. N/A MEANS
CURRENT SKY AND/OR WEATHER CONDITIONS ARE NOT AVAILABLE.

MNZ060>063-068>070-260500-
   Twin Cities Metro

CITY           SKY/WX    TMP DP  RH WIND       PRES   REMARKS
TWIN CITIES    MOCLDY    31  28  89 N6        29.86R WCI  25
ST PAUL        MOCLDY    32  29  88 CALM      29.87S
CRYSTAL        CLOUDY    33  31  92 N6        29.85F FOG     WCI  28
BLAINE         CLOUDY    34  34 100 N3        29.86F FOG
LAKEVILLE      PTCLDY    28  27  93 N3        29.84S
EDEN PRAIRIE   PTCLDY    31  29  92 N6        29.84S FOG     WCI  25
SOUTH ST PAUL  MOCLDY    33  31  93 NE3       29.86S
LAKE ELMO      FAIR      32  32 100 NE3       29.87S FOG
$$
MNZ001>005-007-008-013>017-022>024-027-028-260500-
   Northwest Minnesota

CITY           SKY/WX    TMP DP  RH WIND       PRES   REMARKS
BEMIDJI        CLOUDY    25  21  86 N7        29.91R WCI  17
HALLOCK        CLOUDY    25  21  86 N8        29.99R WCI  16
ROSEAU         CLOUDY    27  21  80 N8        29.95R WCI  18
WARROAD        CLOUDY    25  21  86 NW6       29.94R WCI  18
THIEF RVR FALL CLOUDY    27  21  80 NW7       29.96R WCI  19
CROOKSTON      CLOUDY    27  21  80 N12       29.99R WCI  16
FOSSTON        CLOUDY    23  21  93 N9        29.94R WCI  13
DETROIT LAKES  CLOUDY    27  23  86 N8        29.94R WCI  18
MOORHEAD       CLOUDY    27  27 100 N13       29.97R WCI  16
PARK RAPIDS    CLOUDY    26  21  81 N12       29.90R WCI  16
MAHNOMEN       CLOUDY    25  22  88 N8        29.94R WCI  16
$$
MNZ006-009>011-018-025>026-260500-
   North Central Minnesota

CITY           SKY/WX    TMP DP  RH WIND       PRES   REMARKS
BAUDETTE       CLOUDY    25  22  88 NW14      29.92R WCI  13
FLAG ISLAND    CLOUDY    25  21  86 NW15      29.92R WCI  12
INTL FALLS     CLOUDY    27  23  85 W6        29.89R WCI  20
WASKISH        CLOUDY    27  23  86 CALM      29.92R
BIG FORK       CLOUDY    27  21  80 CALM      29.90R
LONGVILLE      CLOUDY    27  21  80 N5        29.90R WCI  21
GRAND RAPIDS   CLOUDY    28  21  74 N9        29.88R WCI  20
CRANE LAKE     CLOUDY    27  21  80 NW3       29.91R
ORR            CLOUDY    27  21  80 CALM      29.86R
COOK           CLOUDY    27  21  80 CALM      29.88R
WALKER         CLOUDY    25  20  83 N3        29.91R
$$
MNZ012-019>021-037-260500-
   Northeast Minnesota

CITY           SKY/WX    TMP DP  RH WIND       PRES   REMARKS
DULUTH         CLOUDY    30  24  78 N3        29.86R
ELY            CLOUDY    28  23  80 NW5       29.86R WCI  23
HIBBING        CLOUDY    30  21  69 N8        29.87R WCI  22
EVELETH        CLOUDY    30  27  86 NW6       29.88R WCI  24
DULUTH HARBOR  CLOUDY    34  28  80 CALM      29.91R
TWO HARBORS    CLOUDY    34  27  75 CALM      29.87R
SILVER BAY     CLOUDY    32  27  80 CALM      29.86S
GRAND MARAIS     N/A     32  26  78 CALM      29.89R
G MARAIS ARPRT CLOUDY    25  21  86 CALM      29.84R
$$
MNZ029>031-032-039>041-046>048-054>057-064-260500-
   West Central Minnesota

CITY           SKY/WX    TMP DP  RH WIND       PRES   REMARKS
FERGUS FALLS   CLOUDY    27  19  74 N9        29.96R WCI  17
WHEATON        CLOUDY    27  21  80 N13       29.96R WCI  16
MORRIS         LGT SNOW  28  27  93 N8        29.90R WCI  20
ALEXANDRIA     CLOUDY    29  24  82 N9        29.89R WCI  20
ELBOW LAKE     CLOUDY    27  23  85 N13       29.91R WCI  16
WADENA         CLOUDY    27  23  86 NW7       29.90R WCI  19
GLENWOOD       LGT SNOW  28  27  93 N5        29.89R WCI  23
APPLETON       LGT SNOW  30  28  93 N12       29.91R WCI  21
BENSON         LGT SNOW  28  28 100 N6        29.90R WCI  22
ORTONVILLE     MIX PCPN  28  25  86 N10       29.92R WCI  19
MADISON        LGT SNOW  32  30  93 N12       29.91R WCI  23
WILLMAR        LGT SNOW  30  28  93 N7        29.88S WCI  23
$$
MNZ033>034-036-042>043-049>051-058-059-260500-
   Central Minnesota

CITY           SKY/WX    TMP DP  RH WIND       PRES   REMARKS
ST CLOUD       LGT SNOW  34  30  85 CALM      29.88R VSB 3/4
SAUK CENTRE    LGT SNOW  28  28  96 N3        29.89R
PAYNESVILLE    LGT SNOW  28  28 100 NW5       29.88R VSB 1   WCI  22
AITKIN         CLOUDY    30  27  86 CALM      29.87S
PINE RIVER     CLOUDY    28  23  80 N6        29.93R WCI  22
BRAINERD       CLOUDY    30  25  81 N3        29.89R
STAPLES        CLOUDY    28  23  80 N5        29.89R WCI  23
LONG PRAIRIE   LGT SNOW  28  27  93 N6        29.89R WCI  22
LITTLE FALLS   LGT SNOW  30  27  86 CALM      29.89R
LITCHFIELD     MIX PCPN  32  32 100 N3        29.87S
BUFFALO        CLOUDY    32  31  96 CALM      29.88R FOG
MAPLE LAKE     CLOUDY    32  32 100 CALM      29.88R FOG
$$
MNZ037-044-045-052-053-260500-
   East Central Minnesota

CITY           SKY/WX    TMP DP  RH WIND       PRES   REMARKS
PRINCETON      LGT SNOW  34  30  86 CALM      29.88S
MORA           CLOUDY    32  30  93 CALM      29.90R
CAMBRIDGE      LGT SNOW  34  27  75 CALM      29.87R
RUSH CITY      LGT RAIN  31  31  98 CALM      29.89R
MOOSE LAKE     CLOUDY    32  28  86 CALM      29.87R
HINCKLEY       LGT SNOW  32  32 100 CALM      29.88S
CLOQUET        CLOUDY    30  27  86 CALM      29.87R
MCGREGOR       CLOUDY    30  28  93 CALM      29.88S
$$
MNZ071>073-080-081-089-090-097-098-260500-
   Southwest Minnesota

CITY           SKY/WX    TMP DP  RH WIND       PRES   REMARKS
MONTEVIDEO     LGT SNOW  28  28 100 N9        29.90R WCI  20
GRANITE FALLS  LGT SNOW  30  29  96 N10       29.89S WCI  21
CANBY          CLOUDY    29  28  95 N10       29.90R WCI  19
MARSHALL       CLOUDY    28  25  86 N16       29.85S WCI  17
REDWOOD FALLS  CLOUDY    33  31  92 N7        29.85R FOG     WCI  27
OLIVIA         CLOUDY    30  30 100 N9        29.84F FOG     WCI  22
PIPESTONE      CLOUDY    28  27  93 NE14G20   29.80S WCI  17
WINDOM         CLOUDY    30  30 100 N13       29.80S FOG     WCI  20
WORTHINGTON    CLOUDY    30 -17  12 N14       29.80R WCI  20
JACKSON        CLOUDY    32  30  93 N12       29.79R WCI  23
TRACY          CLOUDY    32  31  98 N14       29.83S FOG     WCI  22
SLAYTON        CLOUDY    29  29 100 N12       29.82R FOG     WCI  20
$$
MNZ065>067-074>077-082>085-091>093-260500-
   South Central Minnesota

CITY           SKY/WX    TMP DP  RH WIND       PRES   REMARKS
MANKATO        MOCLDY    30  27  86 NE8       29.82S WCI  23
NEW ULM        CLOUDY    32  30  93 N6        29.83S WCI  26
ST JAMES       CLOUDY    34  30  86 N9        29.82S WCI  26
FAIRMONT       CLOUDY    32  27  80 N8        29.79R WCI  25
GLENCOE        PTCLDY    32  32  99 N5        29.84R FOG     WCI  28
FARIBAULT      PTCLDY    30  30 100 N5        29.83S WCI  25
OWATONNA       CLEAR     30  28  93 NE5       29.81F WCI  25
WASECA         PTCLDY    32  30  93 NE7       29.82S WCI  26
ALBERT LEA     CLEAR     28  28 100 E3        29.78F
$$
MNZ078>079-086>088-094>096-260500-
   Southeast Minnesota

CITY           SKY/WX    TMP DP  RH WIND       PRES   REMARKS
ROCHESTER      PTCLDY    29  26  89 SE8       29.81F WCI  21
RED WING       MOCLDY    34  30  86 CALM      29.85S
STANTON        MOCLDY    32  29  91 NE3       29.82F
DODGE CENTER   PTCLDY    30  30 100 NE5       29.80F WCI  25
WINONA         MOCLDY    34  32  93 CALM      29.86S
AUSTIN         CLEAR     34  30  86 CALM      29.79S
PRESTON        PTCLDY    33  30  88 S7        29.81F WCI  27
$$
ABBREVIATIONS USED IN REMARKS
   TC - TEMPERATURES IN CELSIUS
  WCI - WIND CHILL INDEX
   HX - HEAT INDEX
  VSB - VISIBILITY
$$


USA.gov is the U.S. government's official web portal to all federal, state and local government web resources and services.